TimeCDT,TemperatureF,Dew PointF,Humidity,Sea Level PressureIn,VisibilityMPH,Wind Direction,Wind SpeedMPH,Gust SpeedMPH,PrecipitationIn,Events,Conditions,WindDirDegrees,DateUTC
12:15 AM,47.5,32.9,57,30.08,10.0,East,5.8,-,N/A,,Clear,100,2013-04-06 05:15:00
12:35 AM,47.8,32.4,55,30.08,10.0,East,5.8,-,N/A,,Clear,90,2013-04-06 05:35:00
12:55 AM,46.2,33.4,61,30.09,10.0,ESE,5.8,-,N/A,,Clear,120,2013-04-06 05:55:00
1:15 AM,44.1,34.0,68,30.10,10.0,SE,3.5,-,N/A,,Clear,140,2013-04-06 06:15:00
1:35 AM,44.1,33.8,67,30.10,10.0,Calm,Calm,-,N/A,,Clear,0,2013-04-06 06:35:00
1:55 AM,44.2,32.9,64,30.10,10.0,Calm,Calm,-,N/A,,Clear,0,2013-04-06 06:55:00
2:15 AM,43.9,33.4,67,30.09,10.0,SE,3.5,-,N/A,,Clear,130,2013-04-06 07:15:00
2:35 AM,43.3,32.9,67,30.09,10.0,SE,3.5,-,N/A,,Clear,130,2013-04-06 07:35:00
2:55 AM,43.0,33.6,70,30.08,10.0,ESE,5.8,-,N/A,,Clear,120,2013-04-06 07:55:00
3:15 AM,42.8,33.8,70,30.09,10.0,Calm,Calm,-,N/A,,Clear,0,2013-04-06 08:15:00
3:35 AM,43.0,33.1,68,30.09,10.0,SE,4.6,-,N/A,,Clear,140,2013-04-06 08:35:00
3:55 AM,42.3,33.8,72,30.09,10.0,SE,5.8,-,N/A,,Clear,130,2013-04-06 08:55:00
4:15 AM,41.4,33.3,73,30.08,10.0,SE,5.8,-,N/A,,Clear,140,2013-04-06 09:15:00
4:35 AM,42.4,33.8,71,30.08,10.0,SE,8.1,-,N/A,,Clear,140,2013-04-06 09:35:00
4:55 AM,43.2,34.0,70,30.07,10.0,SE,9.2,-,N/A,,Clear,130,2013-04-06 09:55:00
5:15 AM,44.1,34.0,68,30.07,10.0,SSE,8.1,-,N/A,,Clear,150,2013-04-06 10:15:00
5:35 AM,45.7,34.3,65,30.07,10.0,SE,9.2,-,N/A,,Clear,140,2013-04-06 10:35:00
5:55 AM,45.9,34.0,63,30.06,10.0,SE,10.4,-,N/A,,Clear,140,2013-04-06 10:55:00
6:15 AM,45.5,33.8,64,30.07,10.0,SE,9.2,-,N/A,,Clear,140,2013-04-06 11:15:00
6:35 AM,44.1,34.0,68,30.07,10.0,SSE,5.8,-,N/A,,Clear,150,2013-04-06 11:35:00
6:55 AM,44.2,34.9,70,30.08,10.0,South,4.6,-,N/A,,Clear,170,2013-04-06 11:55:00
7:15 AM,45.9,35.4,67,30.08,10.0,SSE,5.8,-,N/A,,Clear,150,2013-04-06 12:15:00
7:35 AM,46.9,34.9,63,30.08,10.0,SSE,8.1,-,N/A,,Clear,150,2013-04-06 12:35:00
7:55 AM,47.5,34.7,61,30.08,10.0,SSE,6.9,-,N/A,,Clear,150,2013-04-06 12:55:00
8:15 AM,48.4,35.1,60,30.07,10.0,SE,8.1,-,N/A,,Clear,140,2013-04-06 13:15:00
8:35 AM,48.6,35.2,60,30.07,10.0,SSE,6.9,-,N/A,,Clear,150,2013-04-06 13:35:00
8:55 AM,51.6,34.7,52,30.07,10.0,SSE,11.5,-,N/A,,Clear,160,2013-04-06 13:55:00
9:15 AM,54.0,34.7,48,30.06,10.0,SSE,15.0,-,N/A,,Clear,160,2013-04-06 14:15:00
9:35 AM,56.3,35.4,46,30.06,10.0,SSE,13.8,-,N/A,,Clear,160,2013-04-06 14:35:00
9:55 AM,58.1,35.2,42,30.05,10.0,SSE,19.6,24.2,N/A,,Clear,160,2013-04-06 14:55:00
10:15 AM,59.7,35.8,41,30.05,10.0,SSE,16.1,23.0,N/A,,Clear,160,2013-04-06 15:15:00
10:35 AM,61.9,37.8,41,30.04,10.0,South,12.7,-,N/A,,Clear,170,2013-04-06 15:35:00
10:55 AM,63.3,38.3,40,30.04,10.0,South,17.3,20.7,N/A,,Clear,190,2013-04-06 15:55:00
11:15 AM,63.5,39.0,41,30.04,10.0,South,18.4,23.0,N/A,,Clear,170,2013-04-06 16:15:00
11:35 AM,65.3,39.7,39,30.02,10.0,South,18.4,-,N/A,,Clear,180,2013-04-06 16:35:00
11:55 AM,66.4,40.3,38,30.02,10.0,South,17.3,25.3,N/A,,Clear,180,2013-04-06 16:55:00
12:15 PM,66.6,41.0,39,30.01,10.0,South,16.1,27.6,N/A,,Clear,190,2013-04-06 17:15:00
12:35 PM,68.4,41.2,37,29.99,10.0,South,18.4,-,N/A,,Clear,190,2013-04-06 17:35:00
12:55 PM,68.7,40.1,35,29.97,10.0,South,20.7,26.5,N/A,,Clear,170,2013-04-06 17:55:00
1:15 PM,69.8,39.6,33,29.96,7.0,South,23.0,29.9,N/A,,Clear,180,2013-04-06 18:15:00
1:35 PM,69.6,39.7,34,29.95,10.0,South,19.6,26.5,N/A,,Clear,190,2013-04-06 18:35:00
1:55 PM,70.5,39.4,32,29.94,10.0,South,17.3,27.6,N/A,,Clear,190,2013-04-06 18:55:00
2:15 PM,70.2,39.2,32,29.93,10.0,South,20.7,28.8,N/A,,Clear,190,2013-04-06 19:15:00
2:35 PM,70.7,38.7,31,29.91,10.0,South,19.6,32.2,N/A,,Clear,190,2013-04-06 19:35:00
2:55 PM,71.4,39.4,31,29.90,10.0,South,20.7,31.1,N/A,,Clear,180,2013-04-06 19:55:00
3:15 PM,71.2,38.8,31,29.88,10.0,South,19.6,32.2,N/A,,Clear,190,2013-04-06 20:15:00
3:35 PM,71.2,39.0,31,29.86,10.0,South,21.9,28.8,N/A,,Clear,190,2013-04-06 20:35:00
3:55 PM,72.1,39.9,31,29.86,10.0,South,20.7,35.7,N/A,,Clear,190,2013-04-06 20:55:00
4:15 PM,70.9,39.2,32,29.84,10.0,South,27.6,35.7,N/A,,Clear,180,2013-04-06 21:15:00
4:35 PM,69.8,38.7,32,29.83,10.0,South,24.2,31.1,N/A,,Clear,180,2013-04-06 21:35:00
4:55 PM,71.1,39.0,31,29.82,10.0,South,25.3,31.1,N/A,,Clear,190,2013-04-06 21:55:00
5:15 PM,70.3,37.8,30,29.83,10.0,South,25.3,29.9,N/A,,Clear,190,2013-04-06 22:15:00
5:35 PM,69.3,37.8,32,29.84,10.0,South,21.9,33.4,N/A,,Clear,190,2013-04-06 22:35:00
5:55 PM,69.6,38.7,32,29.84,10.0,SSW,23.0,26.5,N/A,,Clear,200,2013-04-06 22:55:00
6:15 PM,67.5,38.8,35,29.84,10.0,South,15.0,21.9,N/A,,Clear,190,2013-04-06 23:15:00
6:35 PM,67.3,37.8,34,29.84,10.0,SSW,17.3,23.0,N/A,,Clear,200,2013-04-06 23:35:00
6:55 PM,66.0,38.7,37,29.84,10.0,South,13.8,-,N/A,,Clear,190,2013-04-06 23:55:00
7:15 PM,65.3,40.5,40,29.82,10.0,South,16.1,-,N/A,,Clear,170,2013-04-07 00:15:00
7:35 PM,65.3,40.8,41,29.83,10.0,South,15.0,-,N/A,,Clear,190,2013-04-07 00:35:00
7:55 PM,65.3,40.3,40,29.81,10.0,South,16.1,-,N/A,,Clear,170,2013-04-07 00:55:00
8:15 PM,65.3,39.6,39,29.82,10.0,South,16.1,20.7,N/A,,Clear,190,2013-04-07 01:15:00
8:35 PM,64.6,40.1,41,29.83,10.0,South,15.0,20.7,N/A,,Clear,190,2013-04-07 01:35:00
8:55 PM,64.0,40.5,42,29.84,10.0,South,11.5,-,N/A,,Clear,180,2013-04-07 01:55:00
9:15 PM,63.1,41.2,45,29.84,10.0,South,11.5,-,N/A,,Clear,190,2013-04-07 02:15:00
9:35 PM,63.0,41.0,45,29.86,10.0,South,12.7,-,N/A,,Clear,190,2013-04-07 02:35:00
9:55 PM,62.6,40.8,45,29.86,10.0,SSW,13.8,-,N/A,,Scattered Clouds,200,2013-04-07 02:55:00
10:15 PM,63.5,39.2,41,29.86,10.0,SSW,16.1,-,N/A,,Mostly Cloudy,200,2013-04-07 03:15:00
10:35 PM,62.6,38.1,40,29.86,10.0,SSW,15.0,-,N/A,,Scattered Clouds,200,2013-04-07 03:35:00
10:55 PM,61.9,37.8,41,29.85,10.0,SSW,13.8,20.7,N/A,,Clear,200,2013-04-07 03:55:00
11:15 PM,61.7,38.1,42,29.85,10.0,SSW,15.0,20.7,N/A,,Clear,200,2013-04-07 04:15:00
11:35 PM,61.5,38.8,43,29.85,10.0,SSW,13.8,-,N/A,,Clear,210,2013-04-07 04:35:00
11:55 PM,61.5,40.5,46,29.85,10.0,SSW,18.4,21.9,N/A,,Clear,210,2013-04-07 04:55:00